Weather History for Mount Shasta, CA

Change the Weather History Date:

Sunday, July 8, 2012

  Actual Average Record
Temperature  
Mean Temperature 70 °F 67 °F  
Max Temperature 93 °F 84 °F 96 °F (1952)
Min Temperature 47 °F 50 °F 36 °F (1927)
Degree Days  
Heating Degree Days 0 1  
Month to date heating degree days 0 14  
Since 1 June heating degree days 179 156  
Since 1 July heating degree days 0 14  
Cooling Degree Days 5 3  
Month to date cooling degree days 19 24  
Year to date cooling degree days 60 69  
Since 1 June cooling degree days 51 61  
Growing Degree Days 20 (Base 50)    
Moisture  
Dew Point 38 °F    
Average Humidity 36    
Maximum Humidity 61    
Minimum Humidity 12    
Precipitation  
Precipitation 0.00 in 0.01 in 0.50 in (1974)
Month to date precipitation 0.00 0.14  
Year to date precipitation 24.49 26.74  
Sea Level Pressure  
Sea Level Pressure 30.05 in    
Wind  
Wind Speed 1 mph (ESE)    
Max Wind Speed 7 mph    
Max Gust Speed 20 mph    
Visibility 10 miles    
Events      
T = Trace of Precipitation, MM = Missing Value Source: NWS Daily Summary

Daily Weather History Graph

Daily Weather History Graph

Search for Another Location

Airport:

Trip Planner

Search our weather history database for the weather conditions in past years. The results will help you decide how hot, cold, wet, or windy it might be!

Date:

Astronomy

Jul. 08, 2012 Rise Set
Actual Time 5:44 AM PDT 8:44 PM PDT
Civil Twilight 5:11 AM PDT 9:17 PM PDT
Nautical Twilight 4:28 AM PDT 9:59 PM PDT
Astronomical Twilight 3:39 AM PDT 10:49 PM PDT
Moon 11:29 PM PDT (7/8) 11:21 AM PDT (7/8)
Length of Visible Light 16h 06m
Length of Day
14h 59m
Waning Gibbous, 72% of the Moon is Illuminated
Jul 8
Waning Gibbous
Jul 10
Last Quarter
Jul 18
New
Jul 26
First Quarter
Aug 1
Full

Hourly Weather History & Observations

Time (PDT) Temp. Dew Point Humidity Pressure Visibility Wind Dir Wind Speed Gust Speed Precip Events Conditions
12:56 AM 51.1 °F 32.0 °F 48% 30.07 in 10.0 mi Calm Calm - N/A   Clear
1:56 AM 51.1 °F 30.9 °F 46% 30.06 in 10.0 mi Calm Calm - N/A   Clear
2:56 AM 50.0 °F 32.0 °F 50% 30.07 in 10.0 mi Calm Calm - N/A   Clear
3:56 AM 51.1 °F 33.1 °F 50% 30.07 in 10.0 mi Calm Calm - N/A   Clear
4:56 AM 48.9 °F 35.1 °F 59% 30.07 in 10.0 mi Calm Calm - N/A   Clear
5:56 AM 50.0 °F 36.0 °F 59% 30.07 in 10.0 mi Calm Calm - N/A   Clear
6:56 AM 55.0 °F 41.0 °F 59% 30.07 in 10.0 mi Calm Calm - N/A   Clear
7:56 AM 64.9 °F 48.0 °F 54% 30.06 in 10.0 mi Calm Calm - N/A   Clear
8:56 AM 73.9 °F 48.9 °F 41% 30.06 in 10.0 mi Calm Calm - N/A   Clear
9:56 AM 78.1 °F 48.0 °F 35% 30.05 in 10.0 mi Calm Calm - N/A   Clear
10:56 AM 84.0 °F 42.1 °F 23% 30.06 in 10.0 mi Calm Calm - N/A   Clear
11:56 AM 88.0 °F 44.1 °F 22% 30.05 in 10.0 mi Variable 4.6 mph - N/A   Clear
12:56 PM 89.1 °F 39.9 °F 18% 30.05 in 10.0 mi SE 3.5 mph - N/A   Clear
1:56 PM 90.0 °F 35.1 °F 14% 30.05 in 10.0 mi Calm Calm - N/A   Clear
2:56 PM 91.9 °F 32.0 °F 12% 30.04 in 10.0 mi Variable 3.5 mph - N/A   Clear
3:56 PM 91.0 °F 32.0 °F 12% 30.03 in 10.0 mi Variable 3.5 mph - N/A   Clear
4:56 PM 89.1 °F 37.0 °F 16% 30.03 in 10.0 mi Calm Calm - N/A   Clear
5:56 PM 87.1 °F 32.0 °F 14% 30.03 in 10.0 mi Variable 3.5 mph - N/A   Clear
6:56 PM 84.0 °F 33.1 °F 16% 30.02 in 10.0 mi Calm Calm - N/A   Clear
7:56 PM 80.1 °F 35.1 °F 20% 30.01 in 10.0 mi East 3.5 mph - N/A   Clear
8:56 PM 66.0 °F 44.1 °F 45% 30.03 in 10.0 mi Calm Calm - N/A   Clear
9:56 PM 66.0 °F 37.9 °F 36% 30.05 in 10.0 mi Calm Calm - N/A   Clear
10:56 PM 60.1 °F 39.0 °F 46% 30.06 in 10.0 mi Calm Calm - N/A   Clear
11:56 PM 55.0 °F 41.0 °F 59% 30.07 in 10.0 mi Calm Calm - N/A   Clear